Location: ??????????
(54.8537°N, 38.8755°E)
Time: 23:16:33
(UTC+00:00)

Tiros 1 - Pass Details

Date: 15 September 2024
Orbit: 623 x 654 km, 48.4° (Epoch: 09 October)

Event Time Altitude Azimuth Distance (km) Brightness Sun altitude
Rises 13:13:00 0° 214° (SW) 2,891 11.5 19.9°
Reaches altitude 10° 13:15:49 10° 197° (SSW) 1,990 10.4 19.5°
Maximum altitude 13:19:04 19° 151° (SSE) 1,474 9.1 19.1°
Drops below altitude 10° 13:22:20 10° 106° (ESE) 2,003 9.3 18.7°
Sets 13:25:11 0° 89° (E) 2,919 10.0 18.3°
